Simultaneous Nadir Overpasses (SNOs) Predictions

Prediction of SNOs between AQUA and GOES-15 Satellite Orbit:

Table of predicted SNOs for the next 14.0 days since TLE Epoch: 3/5/2022
Index Date Time (AQUA) AQUA Lat,Lon GOES-15 Lat,Lon Distance(km) Time Diff (sec)
1 03/05/2022 10:06:45 0.04,-127.46 0.05,-127.58 14.07 80
2 03/07/2022 09:54:29 -0.63,-124.48 0.05,-127.67 363.12 80
3 03/07/2022 22:15:52 -0.46,-129.67 -0.05,-127.69 223.99 80
4 03/09/2022 22:03:35 0.16,-126.68 -0.05,-127.78 124.64 80
5 03/10/2022 10:24:49 0.95,-131.82 0.06,-127.80 458.11 80
6 03/11/2022 21:51:19 0.85,-123.70 -0.06,-127.86 472.74 80
7 03/12/2022 10:12:33 0.25,-128.85 0.06,-127.88 110.13 80
8 03/14/2022 10:00:16 -0.39,-125.87 0.07,-127.95 237.52 80
9 03/14/2022 22:21:38 -0.75,-131.04 -0.07,-127.97 350.14 80
10 03/16/2022 22:09:21 -0.08,-128.06 -0.08,-128.04 2.80 80
11 03/18/2022 21:57:04 0.59,-125.08 -0.08,-128.10 344.24 80
